Location: Street
(51.1247°N, 2.7429°W)
Time: 10:12:45
(UTC+01:00)

STRAND 1 - Pass Details

Date: 22 April 2024
Orbit: 766 x 777 km, 98.4° (Epoch: 29 May)

Event Time Altitude Azimuth Distance (km) Brightness Sun altitude
Rises 21:01:55 0° 7° (N) 3,251 ? -6.9°
Reaches altitude 10° 21:04:29 10° 357° (N) 2,321 ? -7.2°
Maximum altitude 21:08:48 29° 299° (WNW) 1,397 ? -7.8°
Drops below altitude 10° 21:13:07 10° 241° (WSW) 2,313 ? -8.4°
Sets 21:15:41 0° 230° (SW) 3,238 ? -8.7°
